| time (UTC) | temp C | wind direction | speed KPH | gust KPH | rain 1hr cm | rain 24hr cm | rain mn cm | humidity % | barometer mb |
| 20260507005400 | 7 | 20 | 1.6 | 4.8 | 0.00 | 0.00 | 0.00 | 97 | 1012.2 |
| 20260507004900 | 7 | 40 | 3.2 | 8.0 | 0.00 | 0.00 | 0.00 | 96 | 1012.3 |
| 20260507004400 | 7 | 63 | 1.6 | 8.0 | 0.00 | 0.00 | 0.00 | 95 | 1012.3 |
| 20260507003900 | 7 | 48 | 3.2 | 11.3 | 0.00 | 0.00 | 0.00 | 96 | 1012.2 |
| 20260507003400 | 7 | 49 | 8.0 | 11.3 | 0.00 | 0.00 | 0.00 | 95 | 1012.2 |
| 20260507002900 | 7 | 47 | 3.2 | 8.0 | 0.00 | 0.00 | 0.00 | 95 | 1012.2 |
| 20260507002400 | 7 | 71 | 3.2 | 4.8 | 0.00 | 0.00 | 0.00 | 95 | 1012.3 |
| 20260507001900 | 8 | 59 | 4.8 | 11.3 | 0.00 | 0.00 | 0.00 | 94 | 1012.4 |
| 20260507001400 | 8 | 40 | 8.0 | 12.9 | 0.00 | 0.00 | 0.00 | 94 | 1012.4 |
| 20260507000900 | 8 | 65 | 3.2 | 9.7 | 0.00 | 0.00 | 0.00 | 93 | 1012.3 |
| 20260507000400 | 8 | 59 | 4.8 | 9.7 | 0.00 | 0.00 | 0.00 | 93 | 1012.3 |
| 20260506235901 | 8 | 56 | 9.7 | 12.9 | 0.00 | 0.00 | 0.00 | 93 | 1012.3 |
| 20260506234900 | 8 | 44 | 9.7 | 14.5 | 0.00 | 0.00 | 0.00 | 93 | 1012.3 |
| 20260506233900 | 8 | 36 | 8.0 | 12.9 | 0.00 | 0.00 | 0.00 | 92 | 1012.5 |
| 20260506233400 | 8 | 34 | 6.4 | 12.9 | 0.00 | 0.00 | 0.00 | 92 | 1012.6 |
| 20260506232901 | 8 | 51 | 8.0 | 16.1 | 0.00 | 0.00 | 0.00 | 92 | 1012.6 |
| 20260506232400 | 8 | 35 | 11.3 | 20.9 | 0.00 | 0.00 | 0.00 | 92 | 1012.6 |
| 20260506231900 | 8 | 34 | 11.3 | 19.3 | 0.00 | 0.00 | 0.00 | 92 | 1012.6 |
| 20260506231400 | 8 | 33 | 8.0 | 14.5 | 0.00 | 0.00 | 0.00 | 92 | 1012.6 |
| 20260506230900 | 8 | 54 | 4.8 | 16.1 | 0.00 | 0.00 | 0.00 | 92 | 1012.6 |
| 20260506230400 | 8 | 34 | 11.3 | 19.3 | 0.00 | 0.00 | 0.00 | 92 | 1012.8 |
| 20260506225400 | 8 | 19 | 8.0 | 16.1 | 0.00 | 0.00 | 0.00 | 91 | 1012.8 |
| 20260506224900 | 8 | 29 | 6.4 | 16.1 | 0.00 | 0.00 | 0.00 | 91 | 1012.8 |
| 20260506224401 | 8 | 59 | 8.0 | 14.5 | 0.00 | 0.00 | 0.00 | 91 | 1012.8 |
| 20260506223401 | 8 | 37 | 8.0 | 16.1 | 0.00 | 0.00 | 0.00 | 90 | 1012.8 |
| 20260506222900 | 8 | 23 | 8.0 | 12.9 | 0.00 | 0.00 | 0.00 | 90 | 1012.8 |
| 20260506222400 | 8 | 36 | 9.7 | 16.1 | 0.00 | 0.00 | 0.00 | 90 | 1013.0 |
| 20260506221900 | 8 | 27 | 11.3 | 19.3 | 0.00 | 0.00 | 0.00 | 89 | 1012.9 |
| 20260506221400 | 8 | 42 | 9.7 | 22.5 | 0.00 | 0.00 | 0.00 | 89 | 1013.0 |
| 20260506220900 | 9 | 33 | 9.7 | 14.5 | 0.00 | 0.00 | 0.00 | 88 | 1013.0 |
| 20260506220401 | 9 | 30 | 12.9 | 19.3 | 0.00 | 0.00 | 0.00 | 88 | 1013.0 |
| 20260506215907 | 9 | 25 | 8.0 | 16.1 | 0.00 | 0.00 | 0.00 | 88 | 1013.1 |
| 20260506215400 | 9 | 33 | 11.3 | 19.3 | 0.00 | 0.00 | 0.00 | 87 | 1013.0 |
| 20260506214900 | 9 | 26 | 11.3 | 20.9 | 0.00 | 0.00 | 0.00 | 87 | 1013.2 |
| 20260506213900 | 9 | 8 | 4.8 | 16.1 | 0.00 | 0.00 | 0.00 | 86 | 1013.1 |
| 20260506213400 | 9 | 40 | 9.7 | 16.1 | 0.00 | 0.00 | 0.00 | 86 | 1013.4 |
| 20260506212401 | 9 | 37 | 9.7 | 19.3 | 0.00 | 0.00 | 0.00 | 85 | 1013.2 |
| 20260506211900 | 9 | 21 | 14.5 | 20.9 | 0.00 | 0.00 | 0.00 | 84 | 1013.3 |
| 20260506211400 | 9 | 19 | 14.5 | 20.9 | 0.00 | 0.00 | 0.00 | 84 | 1013.1 |
| 20260506210400 | 9 | 19 | 6.4 | 16.1 | 0.00 | 0.00 | 0.00 | 83 | 1013.3 |
| 20260506205900 | 9 | 25 | 9.7 | 14.5 | 0.00 | 0.00 | 0.00 | 83 | 1013.1 |
| 20260506205400 | 9 | 31 | 9.7 | 20.9 | 0.00 | 0.00 | 0.00 | 82 | 1013.2 |
| 20260506204400 | 9 | 40 | 16.1 | 25.7 | 0.00 | 0.00 | 0.00 | 81 | 1013.0 |
| 20260506203900 | 10 | 32 | 11.3 | 22.5 | 0.00 | 0.00 | 0.00 | 81 | 1013.0 |
| 20260506203400 | 10 | 36 | 12.9 | 22.5 | 0.00 | 0.00 | 0.00 | 80 | 1013.1 |
| 20260506202900 | 10 | 47 | 12.9 | 25.7 | 0.00 | 0.00 | 0.00 | 80 | 1012.9 |
| 20260506201900 | 10 | 28 | 14.5 | 25.7 | 0.00 | 0.00 | 0.00 | 78 | 1012.8 |
| 20260506200401 | 10 | 33 | 12.9 | 22.5 | 0.00 | 0.00 | 0.00 | 76 | 1012.4 |
| 20260506195401 | 10 | 43 | 16.1 | 25.7 | 0.00 | 0.00 | 0.00 | 74 | 1012.5 |
| 20260506194901 | 10 | 51 | 16.1 | 32.2 | 0.00 | 0.00 | 0.00 | 73 | 1012.5 |
| 20260506194400 | 10 | 43 | 19.3 | 29.0 | 0.00 | 0.00 | 0.00 | 73 | 1012.6 |
| 20260506193400 | 11 | 36 | 19.3 | 32.2 | 0.00 | 0.00 | 0.00 | 75 | 1012.4 |
| 20260506192900 | 11 | 40 | 17.7 | 32.2 | 0.00 | 0.00 | 0.00 | 76 | 1012.2 |
| 20260506192400 | 11 | 45 | 19.3 | 35.4 | 0.00 | 0.00 | 0.00 | 76 | 1012.3 |
| 20260506191900 | 11 | 48 | 16.1 | 25.7 | 0.00 | 0.00 | 0.00 | 77 | 1012.1 |
| 20260506191400 | 11 | 50 | 12.9 | 25.7 | 0.00 | 0.00 | 0.00 | 77 | 1012.0 |
| 20260506190900 | 12 | 63 | 12.9 | 22.5 | 0.00 | 0.00 | 0.00 | 76 | 1011.9 |
| 20260506190401 | 12 | 55 | 11.3 | 27.4 | 0.00 | 0.00 | 0.00 | 76 | 1011.9 |
| 20260506185900 | 12 | 36 | 20.9 | 29.0 | 0.00 | 0.00 | 0.00 | 74 | 1012.0 |
| 20260506185401 | 12 | 41 | 19.3 | 33.8 | 0.00 | 0.00 | 0.00 | 73 | 1011.8 |
| 20260506184400 | 12 | 18 | 19.3 | 29.0 | 0.00 | 0.00 | 0.00 | 72 | 1011.7 |
| 20260506183900 | 12 | 29 | 19.3 | 25.7 | 0.00 | 0.00 | 0.00 | 71 | 1011.5 |
| 20260506183400 | 12 | 25 | 14.5 | 29.0 | 0.00 | 0.00 | 0.00 | 70 | 1011.6 |
| 20260506182400 | 12 | 18 | 20.9 | 33.8 | 0.00 | 0.00 | 0.00 | 67 | 1011.7 |
| 20260506181901 | 12 | 18 | 20.9 | 29.0 | 0.00 | 0.00 | 0.00 | 66 | 1011.8 |
| 20260506181401 | 12 | 16 | 17.7 | 25.7 | 0.00 | 0.00 | 0.00 | 65 | 1011.7 |
| 20260506180900 | 12 | 35 | 12.9 | 24.1 | 0.00 | 0.00 | 0.00 | 66 | 1011.6 |
| 20260506180401 | 12 | 26 | 11.3 | 25.7 | 0.00 | 0.03 | 0.00 | 68 | 1011.6 |
| 20260506175900 | 12 | 21 | 19.3 | 29.0 | 0.00 | 0.03 | 0.00 | 68 | 1011.8 |
| 20260506175400 | 12 | 13 | 20.9 | 29.0 | 0.00 | 0.03 | 0.00 | 67 | 1011.7 |
| 20260506174900 | 12 | 25 | 14.5 | 25.7 | 0.00 | 0.03 | 0.00 | 68 | 1011.7 |
| 20260506174400 | 12 | 20 | 16.1 | 25.7 | 0.00 | 0.05 | 0.00 | 68 | 1011.5 |
| 20260506173901 | 12 | 17 | 14.5 | 29.0 | 0.00 | 0.05 | 0.00 | 70 | 1011.7 |
| 20260506173400 | 12 | 19 | 14.5 | 29.0 | 0.00 | 0.05 | 0.00 | 70 | 1011.8 |
| 20260506172400 | 12 | 14 | 25.7 | 33.8 | 0.00 | 0.20 | 0.00 | 72 | 1012.0 |
| 20260506171900 | 12 | 24 | 22.5 | 32.2 | 0.00 | 0.20 | 0.00 | 71 | 1011.9 |
| 20260506171401 | 12 | 25 | 22.5 | 33.8 | 0.00 | 0.20 | 0.00 | 71 | 1012.1 |
| 20260506170900 | 12 | 30 | 20.9 | 29.0 | 0.00 | 0.23 | 0.00 | 70 | 1012.0 |
| 20260506165401 | 12 | 18 | 16.1 | 22.5 | 0.00 | 0.30 | 0.00 | 71 | 1012.1 |
| 20260506164900 | 12 | 25 | 12.9 | 27.4 | 0.00 | 0.30 | 0.00 | 71 | 1012.0 |
| 20260506164400 | 12 | 36 | 14.5 | 32.2 | 0.00 | 0.30 | 0.00 | 71 | 1012.1 |
| 20260506163400 | 12 | 24 | 14.5 | 24.1 | 0.00 | 0.30 | 0.00 | 73 | 1011.9 |
| 20260506162900 | 12 | 14 | 16.1 | 27.4 | 0.00 | 0.30 | 0.00 | 71 | 1012.0 |
| 20260506162401 | 12 | 32 | 14.5 | 32.2 | 0.00 | 0.30 | 0.00 | 70 | 1012.2 |
| 20260506160900 | 12 | 13 | 16.1 | 29.0 | 0.00 | 0.30 | 0.00 | 72 | 1012.1 |
| 20260506160400 | 12 | 20 | 19.3 | 29.0 | 0.00 | 0.30 | 0.00 | 73 | 1012.0 |
| 20260506155900 | 12 | 11 | 14.5 | 24.1 | 0.00 | 0.30 | 0.00 | 71 | 1012.1 |
| 20260506155400 | 11 | 20 | 14.5 | 29.0 | 0.00 | 0.30 | 0.00 | 75 | 1012.3 |
| 20260506154901 | 12 | 18 | 19.3 | 29.0 | 0.00 | 0.30 | 0.00 | 76 | 1012.2 |
| 20260506154400 | 12 | 19 | 14.5 | 27.4 | 0.00 | 0.30 | 0.00 | 78 | 1012.3 |
| 20260506153900 | 11 | 15 | 19.3 | 27.4 | 0.00 | 0.30 | 0.00 | 79 | 1012.3 |
| 20260506153401 | 11 | 35 | 19.3 | 29.0 | 0.00 | 0.30 | 0.00 | 80 | 1012.4 |
| 20260506152401 | 11 | 23 | 20.9 | 33.8 | 0.00 | 0.30 | 0.00 | 81 | 1012.5 |
| 20260506151900 | 11 | 18 | 14.5 | 25.7 | 0.00 | 0.30 | 0.00 | 81 | 1012.5 |
| 20260506151400 | 11 | 14 | 22.5 | 29.0 | 0.00 | 0.30 | 0.00 | 80 | 1012.7 |
| 20260506145901 | 11 | 22 | 27.4 | 35.4 | 0.00 | 0.30 | 0.00 | 78 | 1012.8 |
| 20260506144901 | 11 | 24 | 20.9 | 38.6 | 0.00 | 0.30 | 0.00 | 77 | 1012.9 |
| 20260506144401 | 12 | 19 | 29.0 | 38.6 | 0.00 | 0.30 | 0.00 | 74 | 1012.6 |
| 20260506143900 | 13 | 26 | 19.3 | 29.0 | 0.00 | 0.30 | 0.00 | 71 | 1012.5 |
| 20260506143401 | 13 | 19 | 25.7 | 33.8 | 0.00 | 0.30 | 0.00 | 69 | 1012.5 |
| 20260506142900 | 14 | 17 | 20.9 | 33.8 | 0.00 | 0.30 | 0.00 | 65 | 1012.3 |
| 20260506142401 | 13 | 14 | 11.3 | 22.5 | 0.00 | 0.30 | 0.00 | 66 | 1012.4 |
| 20260506141901 | 12 | 334 | 9.7 | 19.3 | 0.00 | 0.30 | 0.00 | 68 | 1012.6 |
| 20260506141401 | 12 | 336 | 9.7 | 22.5 | 0.00 | 0.30 | 0.00 | 69 | 1012.7 |
| 20260506140900 | 12 | 340 | 11.3 | 22.5 | 0.00 | 0.30 | 0.00 | 67 | 1012.6 |
| 20260506140400 | 13 | 322 | 12.9 | 22.5 | 0.00 | 0.30 | 0.00 | 68 | 1012.6 |
| 20260506135900 | 12 | 7 | 11.3 | 20.9 | 0.00 | 0.30 | 0.00 | 67 | 1012.9 |
| 20260506135401 | 12 | 0 | 9.7 | 22.5 | 0.00 | 0.30 | 0.00 | 68 | 1012.9 |
| 20260506134900 | 12 | 5 | 11.3 | 22.5 | 0.00 | 0.30 | 0.00 | 68 | 1013.1 |
| 20260506134400 | 12 | 350 | 11.3 | 20.9 | 0.00 | 0.30 | 0.00 | 69 | 1012.9 |
| 20260506133900 | 12 | 4 | 14.5 | 24.1 | 0.00 | 0.30 | 0.00 | 68 | 1013.1 |
| 20260506133401 | 12 | 355 | 9.7 | 22.5 | 0.00 | 0.30 | 0.00 | 68 | 1013.0 |
| 20260506132901 | 12 | 7 | 9.7 | 22.5 | 0.00 | 0.30 | 0.00 | 68 | 1013.0 |
| 20260506132400 | 13 | 355 | 9.7 | 19.3 | 0.00 | 0.30 | 0.00 | 57 | 1012.6 |
| 20260506131401 | 14 | 54 | 14.5 | 24.1 | 0.00 | 0.33 | 0.00 | 55 | 1012.6 |
| 20260506130901 | 14 | 28 | 8.0 | 14.5 | 0.00 | 0.33 | 0.00 | 55 | 1012.7 |
| 20260506130401 | 13 | 67 | 6.4 | 11.3 | 0.00 | 0.33 | 0.00 | 58 | 1012.9 |
| 20260506125901 | 13 | 339 | 3.2 | 9.7 | 0.00 | 0.33 | 0.00 | 56 | 1012.9 |
| 20260506125406 | 13 | 90 | 3.2 | 8.0 | 0.00 | 0.33 | 0.00 | 57 | 1013.0 |
| 20260506124900 | 13 | 30 | 3.2 | 8.0 | 0.00 | 0.38 | 0.00 | 53 | 1013.0 |
| 20260506124400 | 13 | 95 | 4.8 | 11.3 | 0.00 | 0.48 | 0.00 | 56 | 1013.1 |
| 20260506123401 | 12 | 40 | 8.0 | 12.9 | 0.00 | 0.51 | 0.00 | 55 | 1013.3 |
| 20260506122901 | 14 | 33 | 11.3 | 14.5 | 0.00 | 0.61 | 0.00 | 55 | 1013.1 |
| 20260506121901 | 13 | 82 | 8.0 | 16.1 | 0.00 | 0.66 | 0.00 | 59 | 1013.4 |
| 20260506120400 | 14 | 104 | 8.0 | 14.5 | 0.00 | 0.66 | 0.00 | 55 | 1013.3 |
| 20260506115900 | 14 | 100 | 8.0 | 14.5 | 0.00 | 0.66 | 0.00 | 58 | 1013.3 |
| 20260506115401 | 15 | 84 | 8.0 | 16.1 | 0.00 | 0.66 | 0.00 | 56 | 1013.3 |
| 20260506114901 | 14 | 86 | 4.8 | 12.9 | 0.00 | 0.66 | 0.00 | 56 | 1013.4 |
| 20260506113901 | 13 | 73 | 4.8 | 8.0 | 0.00 | 0.66 | 0.00 | 62 | 1013.9 |
| 20260506113401 | 12 | 76 | 3.2 | 8.0 | 0.00 | 0.66 | 0.00 | 64 | 1014.2 |
| 20260506112901 | 11 | 57 | 4.8 | 8.0 | 0.00 | 0.66 | 0.00 | 67 | 1014.3 |
| 20260506111900 | 11 | 345 | 3.2 | 8.0 | 0.00 | 0.66 | 0.00 | 69 | 1014.5 |
| 20260506111400 | 11 | 272 | 3.2 | 4.8 | 0.00 | 0.66 | 0.00 | 69 | 1014.4 |
| 20260506110900 | 11 | 90 | 1.6 | 8.0 | 0.00 | 0.66 | 0.00 | 68 | 1014.4 |
| 20260506110401 | 12 | 238 | 1.6 | 12.9 | 0.00 | 0.66 | 0.00 | 67 | 1014.3 |
| 20260506105901 | 12 | 34 | 8.0 | 12.9 | 0.00 | 0.66 | 0.00 | 64 | 1014.5 |
| 20260506105401 | 12 | 29 | 11.3 | 16.1 | 0.00 | 0.66 | 0.00 | 63 | 1014.2 |
| 20260506104901 | 13 | 33 | 8.0 | 12.9 | 0.00 | 0.66 | 0.00 | 60 | 1014.0 |
| 20260506104401 | 13 | 88 | 8.0 | 16.1 | 0.00 | 0.66 | 0.00 | 63 | 1014.1 |
| 20260506103401 | 12 | 66 | 6.4 | 9.7 | 0.00 | 0.66 | 0.00 | 65 | 1014.5 |
| 20260506102901 | 11 | 75 | 8.0 | 12.9 | 0.00 | 0.66 | 0.00 | 67 | 1014.7 |
| 20260506102401 | 11 | 59 | 6.4 | 11.3 | 0.00 | 0.66 | 0.00 | 67 | 1014.6 |
| 20260506101401 | 12 | 92 | 4.8 | 12.9 | 0.00 | 0.66 | 0.00 | 69 | 1014.5 |
| 20260506100901 | 12 | 81 | 8.0 | 11.3 | 0.00 | 0.66 | 0.00 | 67 | 1014.3 |
| 20260506100401 | 12 | 101 | 6.4 | 9.7 | 0.00 | 0.66 | 0.00 | 70 | 1014.4 |
| 20260506095900 | 11 | 69 | 6.4 | 12.9 | 0.00 | 0.66 | 0.00 | 75 | 1014.8 |
| 20260506095401 | 10 | 87 | 4.8 | 9.7 | 0.00 | 0.66 | 0.00 | 79 | 1014.9 |
| 20260506094901 | 10 | 60 | 3.2 | 8.0 | 0.00 | 0.66 | 0.00 | 81 | 1015.0 |
| 20260506094401 | 9 | 66 | 3.2 | 8.0 | 0.00 | 0.66 | 0.00 | 79 | 1015.1 |
| 20260506093900 | 10 | 53 | 3.2 | 4.8 | 0.00 | 0.66 | 0.00 | 78 | 1015.0 |
| 20260506093401 | 11 | 51 | 4.8 | 8.0 | 0.00 | 0.66 | 0.00 | 76 | 1014.7 |
| 20260506092900 | 11 | 76 | 4.8 | 9.7 | 0.00 | 0.66 | 0.00 | 77 | 1014.8 |
| 20260506092401 | 11 | 83 | 4.8 | 14.5 | 0.00 | 0.66 | 0.00 | 79 | 1014.7 |
| 20260506091901 | 11 | 112 | 8.0 | 14.5 | 0.00 | 0.66 | 0.00 | 79 | 1014.7 |
| 20260506091400 | 11 | 112 | 8.0 | 14.5 | 0.00 | 0.66 | 0.00 | 78 | 1014.8 |
| 20260506090900 | 10 | 95 | 4.8 | 11.3 | 0.00 | 0.66 | 0.00 | 79 | 1014.7 |
| 20260506090401 | 11 | 78 | 8.0 | 11.3 | 0.00 | 0.66 | 0.00 | 77 | 1014.9 |
| 20260506085900 | 11 | 90 | 4.8 | 9.7 | 0.00 | 0.66 | 0.00 | 81 | 1014.7 |
| 20260506085401 | 10 | 88 | 4.8 | 9.7 | 0.00 | 0.66 | 0.00 | 84 | 1014.9 |
| 20260506084401 | 9 | 88 | 4.8 | 14.5 | 0.00 | 0.66 | 0.00 | 90 | 1015.2 |
| 20260506083401 | 10 | 80 | 4.8 | 11.3 | 0.00 | 0.66 | 0.00 | 83 | 1015.0 |
| 20260506082900 | 10 | 66 | 4.8 | 11.3 | 0.00 | 0.66 | 0.00 | 85 | 1014.8 |
| 20260506081901 | 10 | 85 | 4.8 | 9.7 | 0.00 | 0.66 | 0.00 | 86 | 1015.1 |
| 20260506081401 | 10 | 68 | 8.0 | 12.9 | 0.00 | 0.66 | 0.00 | 87 | 1015.0 |
| 20260506080901 | 10 | 93 | 6.4 | 12.9 | 0.00 | 0.66 | 0.00 | 91 | 1014.9 |
| 20260506080401 | 9 | 77 | 6.4 | 16.1 | 0.00 | 0.66 | 0.00 | 91 | 1015.4 |
| 20260506073401 | 8 | 54 | 8.0 | 14.5 | 0.00 | 0.66 | 0.00 | 93 | 1015.4 |
| 20260506072901 | 8 | 80 | 8.0 | 14.5 | 0.00 | 0.66 | 0.00 | 94 | 1015.4 |
| 20260506072401 | 8 | 91 | 8.0 | 12.9 | 0.00 | 0.66 | 0.00 | 93 | 1015.3 |
| 20260506071901 | 8 | 69 | 9.7 | 16.1 | 0.00 | 0.66 | 0.00 | 94 | 1015.3 |
| 20260506070901 | 8 | 84 | 9.7 | 12.9 | 0.00 | 0.66 | 0.00 | 94 | 1015.1 |
| 20260506062401 | 6 | 92 | 8.0 | 12.9 | 0.00 | 0.66 | 0.00 | 99 | 1015.4 |
| 20260506061901 | 6 | 99 | 8.0 | 11.3 | 0.00 | 0.66 | 0.00 | 99 | 1015.6 |
| 20260506061401 | 6 | 93 | 4.8 | 11.3 | 0.00 | 0.66 | 0.00 | 99 | 1015.6 |
| 20260506060901 | 6 | 93 | 6.4 | 11.3 | 0.00 | 0.66 | 0.00 | 99 | 1015.5 |
| 20260506060401 | 6 | 115 | 6.4 | 9.7 | 0.00 | 0.66 | 0.00 | 99 | 1015.6 |
| 20260506051401 | 6 | 59 | 3.2 | 9.7 | 0.00 | 0.66 | 0.00 | 99 | 1015.6 |
| 20260506050900 | 6 | 85 | 4.8 | 8.0 | 0.00 | 0.66 | 0.00 | 99 | 1015.5 |
| 20260506050401 | 6 | 60 | 3.2 | 8.0 | 0.00 | 0.66 | 0.00 | 99 | 1015.4 |
| 20260506044901 | 6 | 37 | 4.8 | 9.7 | 0.00 | 0.66 | 0.00 | 99 | 1015.3 |
| 20260506044401 | 6 | 56 | 4.8 | 9.7 | 0.00 | 0.66 | 0.00 | 99 | 1015.3 |
| 20260506043401 | 6 | 89 | 4.8 | 9.7 | 0.00 | 0.66 | 0.00 | 99 | 1015.5 |
| 20260506042901 | 6 | 89 | 4.8 | 11.3 | 0.00 | 0.66 | 0.00 | 99 | 1015.4 |
| 20260506041901 | 6 | 216 | 3.2 | 9.7 | 0.00 | 0.66 | 0.00 | 99 | 1015.4 |
| 20260506041401 | 6 | 31 | 3.2 | 9.7 | 0.00 | 0.66 | 0.00 | 99 | 1015.6 |
| 20260506040901 | 6 | 38 | 4.8 | 11.3 | 0.00 | 0.66 | 0.00 | 99 | 1015.5 |
| 20260506040401 | 6 | 54 | 4.8 | 9.7 | 0.00 | 0.66 | 0.00 | 99 | 1015.6 |
| 20260506035900 | 6 | 202 | 3.2 | 11.3 | 0.00 | 0.66 | 0.00 | 99 | 1015.7 |
| 20260506035401 | 6 | 64 | 3.2 | 11.3 | 0.00 | 0.66 | 0.00 | 99 | 1015.5 |
| 20260506034901 | 6 | 131 | 8.0 | 12.9 | 0.00 | 0.66 | 0.00 | 99 | 1015.6 |
| 20260506033901 | 6 | 128 | 9.7 | 12.9 | 0.00 | 0.66 | 0.00 | 99 | 1015.7 |
| 20260506033401 | 6 | 111 | 4.8 | 14.5 | 0.00 | 0.66 | 0.00 | 99 | 1015.7 |
| 20260506032901 | 6 | 111 | 9.7 | 14.5 | 0.00 | 0.66 | 0.00 | 99 | 1015.7 |
| 20260506032401 | 7 | 106 | 6.4 | 12.9 | 0.00 | 0.66 | 0.00 | 99 | 1015.4 |
| 20260506031901 | 6 | 93 | 4.8 | 14.5 | 0.00 | 0.66 | 0.00 | 99 | 1015.5 |
| 20260506031401 | 6 | 104 | 4.8 | 12.9 | 0.00 | 0.66 | 0.00 | 99 | 1015.7 |
| 20260506030901 | 6 | 72 | 8.0 | 16.1 | 0.00 | 0.66 | 0.00 | 99 | 1015.6 |
| 20260506025901 | 6 | 40 | 4.8 | 11.3 | 0.00 | 0.66 | 0.00 | 99 | 1015.7 |
| 20260506024901 | 6 | 19 | 3.2 | 11.3 | 0.00 | 0.66 | 0.00 | 99 | 1015.7 |
| 20260506024402 | 7 | 340 | 3.2 | 9.7 | 0.00 | 0.66 | 0.00 | 99 | 1015.6 |
| 20260506023401 | 6 | 1 | 3.2 | 12.9 | 0.00 | 0.66 | 0.00 | 99 | 1015.5 |
| 20260506022401 | 6 | 21 | 4.8 | 11.3 | 0.00 | 0.66 | 0.00 | 99 | 1015.7 |
| 20260506021902 | 6 | 55 | 6.4 | 9.7 | 0.00 | 0.66 | 0.00 | 99 | 1015.8 |
| 20260506021401 | 6 | 355 | 3.2 | 11.3 | 0.00 | 0.66 | 0.00 | 99 | 1015.6 |
| 20260506020902 | 6 | 76 | 4.8 | 11.3 | 0.00 | 0.66 | 0.00 | 99 | 1015.7 |
| 20260506020401 | 6 | 124 | 3.2 | 11.3 | 0.00 | 0.66 | 0.00 | 99 | 1015.8 |
| 20260506014401 | 7 | 43 | 4.8 | 11.3 | 0.00 | 0.66 | 0.00 | 99 | 1016.1 |
| 20260506013902 | 6 | 109 | 4.8 | 9.7 | 0.00 | 0.66 | 0.00 | 99 | 1016.1 |
| 20260506013401 | 6 | 74 | 4.8 | 9.7 | 0.00 | 0.66 | 0.00 | 99 | 1016.1 |
| 20260506012901 | 6 | 92 | 3.2 | 4.8 | 0.00 | 0.66 | 0.00 | 99 | 1016.2 |
| 20260506012401 | 6 | 73 | 4.8 | 4.8 | 0.00 | 0.66 | 0.00 | 99 | 1016.1 |
| 20260506011901 | 7 | 63 | 3.2 | 4.8 | 0.00 | 0.66 | 0.00 | 99 | 1016.1 |
| 20260506011402 | 6 | 74 | 3.2 | 4.8 | 0.00 | 0.66 | 0.00 | 99 | 1016.1 |
| 20260506010901 | 6 | 51 | 4.8 | 8.0 | 0.00 | 0.66 | 0.00 | 99 | 1016.1 |
| 20260506010401 | 7 | 58 | 3.2 | 4.8 | 0.00 | 0.66 | 0.00 | 99 | 1016.3 |
| 20260506005901 | 7 | 51 | 3.2 | 4.8 | 0.00 | 0.66 | 0.00 | 99 | 1016.3 |